IBE425 LEBL-KBOS

Flight info

Callsign IBE425
Flight time N/A
Altitude 36000
Route MOPAS DCT ORTEZ DCT PEXOD DCT RIXIX DCT XIDAN DCT REGHI/M081F360 DCT LASNO DCT EVBAK DCT ATSUR DCT SOMAX/M081F380 NATJ PORTI/N0462F380 N194A ALLEX DCT EURRO OOSHN5
Aircraft A346/H-SDE2E3FGHIJ3J4J5M1RWXY/LB1D1

Departure

Time 2026-04-29 14:20
Airport Josep Tarradellas Barcelona-El Prat Airport (LEBL)

Arrival

Time N/A
Airport Boston Logan International Airport (KBOS)
Time Latitude Longitude Altitude Speed Heading
2026-04-29 13:26 41.28896 2.07694 27 ft 0 kts 284°
2026-04-29 14:00 41.28894 2.07700 27 ft 3 kts 284°
2026-04-29 14:01 41.28887 2.07734 26 ft 4 kts 284°
2026-04-29 14:01 41.28881 2.07769 25 ft 4 kts 284°
2026-04-29 14:01 41.28875 2.07796 26 ft 4 kts 285°
2026-04-29 14:01 41.28867 2.07828 25 ft 4 kts 300°
2026-04-29 14:02 41.28856 2.07842 24 ft 2 kts 335°
2026-04-29 14:02 41.28833 2.07856 24 ft 4 kts 335°
2026-04-29 14:02 41.28809 2.07871 25 ft 4 kts 335°
2026-04-29 14:02 41.28800 2.07877 26 ft 0 kts 335°
2026-04-29 14:11 41.28800 2.07876 26 ft 0 kts 335°
2026-04-29 14:11 41.28808 2.07872 25 ft 2 kts 335°
2026-04-29 14:12 41.28832 2.07857 23 ft 5 kts 339°
2026-04-29 14:12 41.28871 2.07873 26 ft 8 kts 42°
2026-04-29 14:12 41.28909 2.07952 27 ft 13 kts 63°
2026-04-29 14:12 41.28955 2.08085 27 ft 19 kts 66°
2026-04-29 14:13 41.29012 2.08253 27 ft 18 kts 65°
2026-04-29 14:13 41.29058 2.08367 27 ft 12 kts 43°
2026-04-29 14:13 41.29138 2.08417 28 ft 13 kts 19°
2026-04-29 14:13 41.29226 2.08451 29 ft 13 kts
2026-04-29 14:14 41.29320 2.08407 28 ft 15 kts 336°
2026-04-29 14:14 41.29426 2.08343 31 ft 18 kts 335°
2026-04-29 14:14 41.29548 2.08269 28 ft 18 kts 335°
2026-04-29 14:14 41.29614 2.08225 25 ft 8 kts 314°
2026-04-29 14:15 41.29622 2.08153 29 ft 9 kts 252°
2026-04-29 14:15 41.29594 2.08064 27 ft 12 kts 246°
2026-04-29 14:15 41.29557 2.07955 27 ft 14 kts 245°
2026-04-29 14:15 41.29514 2.07833 29 ft 15 kts 245°
2026-04-29 14:16 41.29468 2.07698 27 ft 17 kts 246°
2026-04-29 14:16 41.29418 2.07551 27 ft 18 kts 245°
2026-04-29 14:16 41.29362 2.07388 30 ft 19 kts 245°
2026-04-29 14:16 41.29340 2.07323 27 ft 0 kts 245°
2026-04-29 14:17 41.29339 2.07320 26 ft 1 kts 245°
2026-04-29 14:17 41.29334 2.07306 30 ft 2 kts 246°
2026-04-29 14:17 41.29323 2.07271 29 ft 6 kts 246°
2026-04-29 14:17 41.29312 2.07211 25 ft 8 kts 285°
2026-04-29 14:18 41.29352 2.07152 28 ft 10 kts 332°
2026-04-29 14:18 41.29416 2.07115 27 ft 11 kts 354°
2026-04-29 14:18 41.29473 2.07169 28 ft 7 kts 60°
2026-04-29 14:18 41.29480 2.07188 27 ft 0 kts 63°
2026-04-29 14:19 41.29487 2.07206 29 ft 15 kts 64°
2026-04-29 14:19 41.29615 2.07576 29 ft 72 kts 65°
2026-04-29 14:19 41.29898 2.08407 33 ft 122 kts 65°
2026-04-29 14:19 41.30312 2.09618 27 ft 163 kts 65°
2026-04-29 14:20 41.30803 2.11046 407 ft 169 kts 67°
2026-04-29 14:20 41.31279 2.12473 1010 ft 169 kts 66°
2026-04-29 14:20 41.31767 2.13886 1502 ft 171 kts 66°
2026-04-29 14:20 41.32279 2.15369 1922 ft 179 kts 67°
2026-04-29 14:21 41.32818 2.16936 2185 ft 193 kts 66°
2026-04-29 14:21 41.33507 2.18525 2497 ft 209 kts 57°
2026-04-29 14:21 41.34471 2.20074 2795 ft 226 kts 46°
2026-04-29 14:21 41.35654 2.21577 3106 ft 244 kts 48°
2026-04-29 14:22 41.36844 2.23295 3475 ft 258 kts 51°
2026-04-29 14:22 41.38040 2.25118 4072 ft 263 kts 51°
2026-04-29 14:22 41.39242 2.26981 4737 ft 267 kts 51°
2026-04-29 14:22 41.40458 2.28877 5391 ft 271 kts 52°
2026-04-29 14:23 41.41695 2.30819 6045 ft 277 kts 51°
2026-04-29 14:23 41.43169 2.32525 6655 ft 286 kts 30°
2026-04-29 14:23 41.45057 2.33425 7299 ft 292 kts 12°
2026-04-29 14:23 41.47068 2.33912 8041 ft 294 kts
2026-04-29 14:24 41.49099 2.34355 8767 ft 297 kts
2026-04-29 14:24 41.51150 2.34814 9477 ft 301 kts
2026-04-29 14:24 41.53228 2.35296 10179 ft 304 kts
2026-04-29 14:24 41.55347 2.35796 10651 ft 316 kts
2026-04-29 14:25 41.57540 2.36321 10954 ft 333 kts
2026-04-29 14:25 41.59878 2.36891 11260 ft 350 kts
2026-04-29 14:25 41.62329 2.37488 11564 ft 366 kts
2026-04-29 14:25 41.64918 2.37740 11825 ft 381 kts 352°
2026-04-29 14:26 41.67485 2.36753 12134 ft 390 kts 330°
2026-04-29 14:26 41.69652 2.34575 12646 ft 391 kts 309°
2026-04-29 14:26 41.71108 2.31538 13370 ft 387 kts 290°
2026-04-29 14:26 41.71729 2.28063 14093 ft 384 kts 275°
2026-04-29 14:27 41.72036 2.24497 14736 ft 386 kts 274°
2026-04-29 14:27 41.72334 2.20894 15316 ft 391 kts 274°
2026-04-29 14:27 41.72648 2.17255 15902 ft 395 kts 274°
2026-04-29 14:28 41.73311 2.09907 17119 ft 402 kts 275°
2026-04-29 14:28 41.73651 2.06156 17715 ft 407 kts 274°
2026-04-29 14:28 41.73994 2.02366 18281 ft 411 kts 275°
2026-04-29 14:28 41.74339 1.98548 18768 ft 415 kts 275°
2026-04-29 14:29 41.74687 1.94685 19282 ft 418 kts 275°
2026-04-29 14:29 41.75036 1.90803 19814 ft 421 kts 274°
2026-04-29 14:29 41.75386 1.86888 20338 ft 424 kts 274°
2026-04-29 14:29 41.75734 1.82947 20831 ft 428 kts 274°
2026-04-29 14:30 41.76084 1.78962 21312 ft 432 kts 275°
2026-04-29 14:30 41.76451 1.74946 21775 ft 436 kts 277°
2026-04-29 14:30 41.77305 1.71065 22152 ft 445 kts 294°
2026-04-29 14:30 41.79023 1.67575 22626 ft 452 kts 310°
2026-04-29 14:31 41.81411 1.64793 23119 ft 457 kts 322°
2026-04-29 14:31 41.83998 1.62282 23605 ft 460 kts 323°
2026-04-29 14:31 41.86620 1.59766 23960 ft 464 kts 323°
2026-04-29 14:31 41.89245 1.57235 24373 ft 467 kts 323°
2026-04-29 14:32 41.91892 1.54669 24762 ft 470 kts 323°
2026-04-29 14:32 41.94553 1.52072 25162 ft 472 kts 322°
2026-04-29 14:32 41.97216 1.49465 25564 ft 475 kts 322°
2026-04-29 14:32 41.99892 1.46835 25973 ft 478 kts 322°
2026-04-29 14:33 42.02594 1.44173 26342 ft 481 kts 322°
2026-04-29 14:33 42.05296 1.41506 26716 ft 483 kts 322°
2026-04-29 14:33 42.07988 1.38848 27109 ft 485 kts 322°
2026-04-29 14:33 42.10714 1.36152 27488 ft 488 kts 322°
2026-04-29 14:34 42.13455 1.33440 27964 ft 488 kts 322°
2026-04-29 14:34 42.16190 1.30730 28541 ft 486 kts 322°
2026-04-29 14:34 42.18904 1.28036 29208 ft 484 kts 322°
2026-04-29 14:34 42.21608 1.25350 29769 ft 482 kts 322°
2026-04-29 14:35 42.23408 1.23559 30138 ft 481 kts 322°
2026-04-29 14:35 42.26105 1.20876 30580 ft 480 kts 322°
2026-04-29 14:35 42.28795 1.18195 30985 ft 480 kts 322°
2026-04-29 14:35 42.31484 1.15511 31396 ft 480 kts 322°
2026-04-29 14:36 42.34172 1.12826 31799 ft 480 kts 322°
2026-04-29 14:36 42.36861 1.10136 32158 ft 480 kts 321°
2026-04-29 14:36 42.39485 1.07314 32511 ft 479 kts 318°
2026-04-29 14:36 42.41974 1.04315 32904 ft 478 kts 314°
2026-04-29 14:37 42.44331 1.01132 33290 ft 477 kts 310°
2026-04-29 14:37 42.46539 0.97779 33641 ft 476 kts 307°
2026-04-29 14:37 42.48570 0.94312 33964 ft 475 kts 304°
2026-04-29 14:37 42.50542 0.90715 34321 ft 474 kts 303°
2026-04-29 14:38 42.52500 0.87097 34605 ft 474 kts 303°
2026-04-29 14:38 42.54453 0.83479 34861 ft 475 kts 303°
2026-04-29 14:38 42.56404 0.79863 35171 ft 475 kts 303°
2026-04-29 14:38 42.58359 0.76249 35467 ft 475 kts 303°
2026-04-29 14:39 42.60320 0.72623 35717 ft 476 kts 303°
2026-04-29 14:39 42.62285 0.68994 35910 ft 477 kts 303°
2026-04-29 14:39 42.64257 0.65352 35966 ft 479 kts 302°
2026-04-29 14:40 42.68191 0.58054 35973 ft 485 kts 302°
2026-04-29 14:40 42.72148 0.50699 35959 ft 480 kts 302°
2026-04-29 14:41 42.76090 0.43353 35961 ft 479 kts 302°
2026-04-29 14:41 42.80028 0.35994 35941 ft 479 kts 302°
2026-04-29 14:42 42.83936 0.28674 35942 ft 480 kts 302°
2026-04-29 14:42 42.87873 0.21289 35932 ft 481 kts 302°
2026-04-29 14:43 42.91800 0.13900 35934 ft 481 kts 302°
2026-04-29 14:43 42.95729 0.06492 35948 ft 481 kts 302°
2026-04-29 14:44 42.99653 -0.00925 35927 ft 481 kts 302°
2026-04-29 14:44 43.03568 -0.08337 35922 ft 480 kts 302°
2026-04-29 14:45 43.07453 -0.15719 35916 ft 481 kts 302°
2026-04-29 14:45 43.11356 -0.23163 35911 ft 481 kts 302°
2026-04-29 14:46 43.15261 -0.30622 35909 ft 481 kts 301°
2026-04-29 14:46 43.19163 -0.38095 35904 ft 481 kts 301°
2026-04-29 14:47 43.23050 -0.45558 35906 ft 481 kts 301°
2026-04-29 14:47 43.26939 -0.53047 35909 ft 480 kts 301°
2026-04-29 14:48 43.30808 -0.60517 35905 ft 480 kts 301°
2026-04-29 14:48 43.34809 -0.67808 35898 ft 482 kts 306°
2026-04-29 14:49 43.39404 -0.74590 35891 ft 486 kts 313°
2026-04-29 14:49 43.44528 -0.80732 35893 ft 489 kts 317°
2026-04-29 14:50 43.49793 -0.86656 35881 ft 489 kts 317°
2026-04-29 14:50 43.55061 -0.92603 35869 ft 489 kts 317°
2026-04-29 14:51 43.60318 -0.98570 35880 ft 489 kts 316°
2026-04-29 14:51 43.65522 -1.04517 35877 ft 489 kts 316°
2026-04-29 14:52 43.70767 -1.10526 35879 ft 489 kts 316°
2026-04-29 14:52 43.76018 -1.16548 35891 ft 489 kts 316°
2026-04-29 14:53 43.81263 -1.22572 35873 ft 489 kts 316°
2026-04-29 14:53 43.86511 -1.28610 35865 ft 489 kts 316°
2026-04-29 14:54 43.91746 -1.34648 35859 ft 489 kts 316°
2026-04-29 14:54 43.96952 -1.40669 35852 ft 494 kts 316°
2026-04-29 14:55 44.02293 -1.46864 35857 ft 505 kts 316°
2026-04-29 14:55 44.07707 -1.53150 35870 ft 508 kts 316°
2026-04-29 14:56 44.13132 -1.59464 35853 ft 506 kts 316°
2026-04-29 14:56 44.18537 -1.65770 35849 ft 506 kts 316°
2026-04-29 14:57 44.23945 -1.72078 35853 ft 507 kts 316°
2026-04-29 14:57 44.29351 -1.78404 35852 ft 507 kts 316°
2026-04-29 14:58 44.34717 -1.84709 35847 ft 507 kts 316°
2026-04-29 14:58 44.40116 -1.91076 35872 ft 507 kts 316°
2026-04-29 14:59 44.45488 -1.97423 35857 ft 503 kts 316°
2026-04-29 14:59 44.50832 -2.03759 35853 ft 503 kts 316°
2026-04-29 15:00 44.56175 -2.10110 35850 ft 503 kts 316°
2026-04-29 15:00 44.61507 -2.16462 35852 ft 503 kts 316°
2026-04-29 15:01 44.66811 -2.22796 35851 ft 503 kts 316°
2026-04-29 15:01 44.72155 -2.29193 35872 ft 503 kts 316°
2026-04-29 15:02 44.77489 -2.35586 35858 ft 503 kts 315°
2026-04-29 15:02 44.82819 -2.42000 35863 ft 503 kts 315°
2026-04-29 15:03 44.88134 -2.48412 35841 ft 502 kts 315°
2026-04-29 15:03 44.93416 -2.54800 35858 ft 502 kts 315°
2026-04-29 15:04 44.98724 -2.61237 35856 ft 502 kts 315°
2026-04-29 15:04 45.04029 -2.67685 35844 ft 502 kts 315°
2026-04-29 15:05 45.09339 -2.74155 35858 ft 504 kts 315°
2026-04-29 15:05 45.14663 -2.80660 35856 ft 505 kts 315°
2026-04-29 15:06 45.19939 -2.87122 35852 ft 499 kts 315°
2026-04-29 15:06 45.22540 -2.90312 35852 ft 488 kts 315°
2026-04-29 15:06 45.25095 -2.93455 35852 ft 486 kts 315°
2026-04-29 15:07 45.30159 -2.99826 35857 ft 484 kts 312°
2026-04-29 15:07 45.34756 -3.06779 35865 ft 480 kts 306°
2026-04-29 15:08 45.39012 -3.14126 35865 ft 482 kts 304°
2026-04-29 15:08 45.43260 -3.21545 35862 ft 483 kts 304°
2026-04-29 15:09 45.47511 -3.28965 35857 ft 483 kts 304°
2026-04-29 15:09 45.51738 -3.36352 35855 ft 483 kts 304°
2026-04-29 15:10 45.55991 -3.43798 35853 ft 483 kts 304°
2026-04-29 15:10 45.60237 -3.51248 35858 ft 483 kts 304°
2026-04-29 15:11 45.64478 -3.58709 35865 ft 482 kts 304°
2026-04-29 15:11 45.68709 -3.66173 35858 ft 482 kts 304°
2026-04-29 15:12 45.72932 -3.73637 35862 ft 482 kts 304°
2026-04-29 15:12 45.77151 -3.81112 35858 ft 482 kts 304°
2026-04-29 15:13 45.81365 -3.88603 35848 ft 481 kts 304°
2026-04-29 15:13 45.85561 -3.96088 35878 ft 482 kts 304°
2026-04-29 15:14 45.89724 -4.03534 35865 ft 481 kts 304°
2026-04-29 15:14 45.93914 -4.11044 35850 ft 480 kts 304°
2026-04-29 15:15 45.98091 -4.18548 35864 ft 480 kts 304°
2026-04-29 15:15 46.02252 -4.26047 35866 ft 480 kts 304°
2026-04-29 15:16 46.06411 -4.33569 35864 ft 480 kts 304°
2026-04-29 15:16 46.10579 -4.41125 35859 ft 480 kts 304°
2026-04-29 15:17 46.14714 -4.48628 35856 ft 481 kts 304°
2026-04-29 15:17 46.18870 -4.56192 35858 ft 481 kts 304°
2026-04-29 15:18 46.23029 -4.63785 35870 ft 481 kts 304°
2026-04-29 15:18 46.27184 -4.71395 35881 ft 481 kts 304°
2026-04-29 15:19 46.31332 -4.79017 35868 ft 483 kts 304°
2026-04-29 15:19 46.35495 -4.86687 35871 ft 484 kts 304°
2026-04-29 15:20 46.39633 -4.94328 35876 ft 484 kts 304°
2026-04-29 15:20 46.43789 -5.02030 35867 ft 485 kts 304°
2026-04-29 15:21 46.47938 -5.09752 35867 ft 485 kts 303°
2026-04-29 15:21 46.52000 -5.17604 35866 ft 485 kts 303°
2026-04-29 15:22 46.56030 -5.25486 35900 ft 485 kts 303°
2026-04-29 15:22 46.60056 -5.33360 35874 ft 484 kts 302°
2026-04-29 15:23 46.64046 -5.41187 35869 ft 484 kts 302°
2026-04-29 15:23 46.68061 -5.49079 35871 ft 484 kts 302°
2026-04-29 15:24 46.71392 -5.55642 35867 ft 484 kts 302°
2026-04-29 15:24 46.75397 -5.63554 35868 ft 484 kts 302°
2026-04-29 15:25 46.79389 -5.71462 35893 ft 484 kts 302°
2026-04-29 15:25 46.83384 -5.79396 35874 ft 484 kts 302°
2026-04-29 15:26 46.87388 -5.87378 35872 ft 486 kts 302°
2026-04-29 15:26 46.91355 -5.95300 35869 ft 486 kts 302°
2026-04-29 15:27 46.95352 -6.03310 35867 ft 486 kts 302°
2026-04-29 15:27 46.99355 -6.11362 35868 ft 486 kts 302°
2026-04-29 15:28 47.03328 -6.19380 35890 ft 487 kts 302°
2026-04-29 15:28 47.07528 -6.27272 35874 ft 490 kts 305°
2026-04-29 15:29 47.11834 -6.35039 35871 ft 490 kts 305°
2026-04-29 15:30 47.20404 -6.50598 35888 ft 490 kts 305°
2026-04-29 15:30 47.24689 -6.58437 35869 ft 492 kts 305°
2026-04-29 15:31 47.28977 -6.66298 35896 ft 491 kts 306°
2026-04-29 15:31 47.33250 -6.74153 35883 ft 490 kts 306°
2026-04-29 15:32 47.37516 -6.82017 35881 ft 490 kts 305°
2026-04-29 15:32 47.41776 -6.89900 35885 ft 492 kts 306°
2026-04-29 15:33 47.46019 -6.97770 35886 ft 492 kts 306°
2026-04-29 15:33 47.50287 -7.05707 35890 ft 492 kts 305°
2026-04-29 15:34 47.54548 -7.13656 35906 ft 493 kts 305°
2026-04-29 15:34 47.58808 -7.21630 35903 ft 494 kts 306°
2026-04-29 15:35 47.63095 -7.29678 35887 ft 496 kts 306°
2026-04-29 15:35 47.67395 -7.37768 35890 ft 497 kts 306°
2026-04-29 15:36 47.71671 -7.45838 35896 ft 497 kts 305°
2026-04-29 15:36 47.75929 -7.53902 35891 ft 497 kts 305°
2026-04-29 15:37 47.80202 -7.62024 35913 ft 498 kts 306°
2026-04-29 15:37 47.84473 -7.70170 35906 ft 499 kts 306°
2026-04-29 15:38 47.88744 -7.78324 35907 ft 499 kts 306°
2026-04-29 15:38 47.93008 -7.86499 35907 ft 499 kts 306°
2026-04-29 15:39 47.97271 -7.94705 35907 ft 500 kts 306°
2026-04-29 15:39 48.01651 -8.02699 35909 ft 502 kts 310°
2026-04-29 15:40 48.06348 -8.10434 35911 ft 502 kts 311°
2026-04-29 15:40 48.11052 -8.18157 35921 ft 500 kts 311°
2026-04-29 15:41 48.15739 -8.25884 35911 ft 500 kts 311°
2026-04-29 15:41 48.20419 -8.33640 35920 ft 501 kts 311°
2026-04-29 15:42 48.25103 -8.41428 35917 ft 502 kts 311°
2026-04-29 15:42 48.29782 -8.49232 35926 ft 502 kts 311°
2026-04-29 15:43 48.34419 -8.56993 35927 ft 502 kts 311°
2026-04-29 15:43 48.39086 -8.64839 35945 ft 502 kts 311°
2026-04-29 15:44 48.43754 -8.72713 35940 ft 504 kts 311°
2026-04-29 15:44 48.48412 -8.80584 35936 ft 503 kts 311°
2026-04-29 15:45 48.53034 -8.88416 35940 ft 503 kts 311°
2026-04-29 15:45 48.57671 -8.96360 35946 ft 502 kts 309°
2026-04-29 15:46 48.61839 -9.04836 35943 ft 503 kts 302°
2026-04-29 15:46 48.65554 -9.13844 35952 ft 503 kts 300°
2026-04-29 15:47 48.69202 -9.22896 35950 ft 503 kts 300°
2026-04-29 15:47 48.72853 -9.31954 35955 ft 501 kts 301°
2026-04-29 15:48 48.76480 -9.40941 35955 ft 504 kts 301°
2026-04-29 15:48 48.80140 -9.50038 35966 ft 504 kts 301°
2026-04-29 15:49 48.83776 -9.59110 35964 ft 500 kts 301°
2026-04-29 15:49 48.87391 -9.68157 35988 ft 500 kts 301°